Retour au catalogue

FENGYUN 1C DEB

ActifSSO
NORAD 35220·DEBRIS·🇨🇳 China

Lancé May 10, 1999 depuis Taiyuan Satellite Launch Center

Loading…

Prochains Passages (prochaines 24 heures)

TLE

VieillissantSource: Space-Track

Époque: Sep 11, 2026, 04:19 UTC

1 35220U 99025DQC 26254.18053009  .00001888  00000-0  83170-3 0  9999
2 35220  99.0136 335.9790 0043065 244.4080 115.2644 14.24189668670597

Suivez FENGYUN 1C DEB en temps réel avec AllMySat

Download on the App Store